Voltar ao catálogo

COSMOS 374 DEB

AtivoUNKNOWN
NORAD 5076·DEBRIS·🇷🇺 Russia

Lançado Oct 23, 1970 de Baikonur Cosmodrome

Loading…

Próximas Passagens

TLE

Source: Space-Track
1 05076U 70089AP  26218.12999974  .00000223  00000-0  14683-3 0  9993
2 05076  62.8066  12.1631 0967418 214.3299 139.1390 12.87490726602120

Acompanhe COSMOS 374 DEB em tempo real com AllMySat

Download on the App Store